| time (UTC) | temp C | wind direction | speed KPH | gust KPH | rain 1hr cm | rain 24hr cm | rain mn cm | humidity % | barometer mb |
| 20260505034545 | 17 | 190 | 9.7 | 19.3 | 0.00 | 0.00 | 0.00 | 53 | 1015.2 |
| 20260505033039 | 16 | 233 | 8.0 | 14.5 | 0.00 | 0.00 | 0.00 | 54 | 1015.3 |
| 20260505031539 | 16 | 204 | 1.6 | 11.3 | 0.00 | 0.00 | 0.00 | 54 | 1015.4 |
| 20260505030035 | 17 | 212 | 3.2 | 8.0 | 0.00 | 0.00 | 0.00 | 53 | 1015.6 |
| 20260505024539 | 17 | 227 | 1.6 | 9.7 | 0.00 | 0.00 | 0.00 | 52 | 1015.6 |
| 20260505023039 | 17 | 203 | 1.6 | 16.1 | 0.00 | 0.00 | 0.00 | 50 | 1015.4 |
| 20260505021538 | 18 | 202 | 9.7 | 20.9 | 0.00 | 0.00 | 0.00 | 48 | 1015.2 |
| 20260505020039 | 18 | 223 | 9.7 | 20.9 | 0.00 | 0.00 | 0.00 | 48 | 1015.1 |
| 20260505014535 | 18 | 245 | 6.4 | 16.1 | 0.00 | 0.00 | 0.00 | 48 | 1015.0 |
| 20260505013043 | 18 | 0 | 0.0 | 4.8 | 0.00 | 0.00 | 0.00 | 46 | 1014.9 |
| 20260505011542 | 19 | 0 | 0.0 | 6.4 | 0.00 | 0.00 | 0.00 | 45 | 1014.9 |
| 20260505004535 | 20 | 214 | 9.7 | 24.1 | 0.00 | 0.00 | 0.00 | 43 | 1014.5 |
| 20260505003041 | 20 | 214 | 14.5 | 24.1 | 0.00 | 0.00 | 0.00 | 42 | 1014.4 |
| 20260505001539 | 20 | 186 | 3.2 | 11.3 | 0.00 | 0.00 | 0.00 | 41 | 1014.2 |
| 20260505000045 | 21 | 205 | 4.8 | 9.7 | 0.00 | 0.00 | 0.00 | 40 | 1014.3 |
| 20260504234536 | 21 | 220 | 8.0 | 16.1 | 0.00 | 0.00 | 0.00 | 39 | 1014.3 |
| 20260504233039 | 22 | 208 | 11.3 | 22.5 | 0.00 | 0.00 | 0.00 | 39 | 1014.1 |
| 20260504231540 | 22 | 205 | 12.9 | 20.9 | 0.00 | 0.00 | 0.00 | 39 | 1013.9 |
| 20260504230041 | 22 | 202 | 14.5 | 27.4 | 0.00 | 0.00 | 0.00 | 38 | 1014.0 |
| 20260504224539 | 22 | 175 | 12.9 | 30.6 | 0.00 | 0.00 | 0.00 | 37 | 1013.8 |
| 20260504223045 | 23 | 211 | 12.9 | 25.7 | 0.00 | 0.00 | 0.00 | 36 | 1013.9 |
| 20260504221548 | 23 | 182 | 9.7 | 20.9 | 0.00 | 0.00 | 0.00 | 36 | 1013.8 |
| 20260504220035 | 23 | 231 | 11.3 | 24.1 | 0.00 | 0.00 | 0.00 | 36 | 1013.9 |
| 20260504214539 | 23 | 225 | 16.1 | 27.4 | 0.00 | 0.00 | 0.00 | 35 | 1013.9 |
| 20260504213057 | 23 | 204 | 16.1 | 24.1 | 0.00 | 0.00 | 0.00 | 35 | 1014.0 |
| 20260504211546 | 24 | 205 | 12.9 | 24.1 | 0.00 | 0.00 | 0.00 | 34 | 1014.0 |
| 20260504210041 | 24 | 202 | 12.9 | 24.1 | 0.00 | 0.00 | 0.00 | 34 | 1014.0 |
| 20260504204535 | 24 | 79 | 16.1 | 25.7 | 0.00 | 0.00 | 0.00 | 34 | 1014.3 |
| 20260504203050 | 24 | 222 | 11.3 | 30.6 | 0.00 | 0.00 | 0.00 | 34 | 1014.4 |
| 20260504201540 | 24 | 176 | 12.9 | 24.1 | 0.00 | 0.00 | 0.00 | 34 | 1014.5 |
| 20260504200039 | 23 | 205 | 16.1 | 27.4 | 0.00 | 0.00 | 0.00 | 35 | 1014.6 |
| 20260504194541 | 25 | 197 | 9.7 | 29.0 | 0.00 | 0.00 | 0.00 | 35 | 1014.8 |
| 20260504193035 | 25 | 205 | 12.9 | 29.0 | 0.00 | 0.00 | 0.00 | 34 | 1014.9 |
| 20260504191545 | 23 | 138 | 6.4 | 22.5 | 0.00 | 0.00 | 0.00 | 36 | 1015.0 |
| 20260504190042 | 24 | 138 | 16.1 | 24.1 | 0.00 | 0.00 | 0.00 | 35 | 1015.2 |
| 20260504184538 | 24 | 212 | 9.7 | 24.1 | 0.00 | 0.00 | 0.00 | 35 | 1015.5 |
| 20260504183047 | 24 | 211 | 4.8 | 27.4 | 0.00 | 0.00 | 0.00 | 35 | 1015.7 |
| 20260504181538 | 24 | 202 | 8.0 | 22.5 | 0.00 | 0.00 | 0.00 | 37 | 1015.8 |
| 20260504180050 | 24 | 187 | 16.1 | 29.0 | 0.00 | 0.00 | 0.00 | 34 | 1016.0 |
| 20260504174543 | 25 | 184 | 4.8 | 17.7 | 0.00 | 0.00 | 0.00 | 34 | 1015.8 |
| 20260504173038 | 24 | 205 | 4.8 | 19.3 | 0.00 | 0.00 | 0.00 | 35 | 1015.8 |
| 20260504171536 | 23 | 0 | 1.6 | 17.7 | 0.00 | 0.00 | 0.00 | 35 | 1016.1 |
| 20260504081538 | 7 | 233 | 0.0 | 6.4 | 0.00 | 0.00 | 0.00 | 81 | 1016.8 |
| 20260504044541 | 8 | 218 | 3.2 | 4.8 | 0.00 | 0.00 | 0.00 | 74 | 1017.2 |
| 20260504043039 | 9 | 211 | 1.6 | 3.2 | 0.00 | 0.00 | 0.00 | 72 | 1017.2 |
| 20260504041547 | 10 | 211 | 0.0 | 3.2 | 0.00 | 0.00 | 0.00 | 70 | 1016.8 |
| 20260504040110 | 10 | 0 | 0.0 | 1.6 | 0.00 | 0.00 | 0.00 | 67 | 1016.8 |